Home > Weather > London > Past weeks

Flag for Canada Past Weather in London, Ontario, Canada — Yesterday and Last 2 Weeks

Now
70 °F

Partly sunny.


Feels Like: 70 °F
Forecast: 61 / 81 °F
Wind: 2 mph from North

Location: London Weather Station

Current Time: Aug 28, 2016 at 10:19:48 PM

Latest Report: Aug 28, 2016 at 9:00 PM


Visibility: 15 mi

Pressure: 30.19 "Hg

Humidity: 94%

Dew Point: 68 °F

Location of LondonLocation

Past Weather in London — Graph

°F

London Temperature Yesterday

Maximum temperature yesterday: 81 °F (at 2:00 PM)
Minimum temperature yesterday: 61 °F (at 5:00 AM)
Average temperature yesterday: 70 °F

High & Low Weather Summary for the Past Weeks

 TemperatureHumidityPressure
High82 °F (Aug 18, 4:00 PM)100% (Aug 13, 9:00 PM)30.28 "Hg (Aug 13, 9:00 PM)
Low54 °F (Aug 22, 7:00 AM)50% (Aug 22, 2:00 PM)29.59 "Hg (Aug 21, 2:00 AM)
Average71 °F85%30.03 "Hg
* Reported Aug 13 9:00 PM — Aug 28 9:00 PM, London, Weather by CustomWeather, © 2016

Note: Actual official high and low records may vary slightly from our data, if they occured in-between our weather recording intervals... More about our weather records

Advertising

London Weather History for the Previous 24 Hours

Scroll right to see more
 ConditionsComfort  
Time TempWeatherWind HumidityBarometerVisibility
9:00 PM
Sun, Aug 28
70 °FPartly sunny.2 mph94%30.19 "Hg15 mi
8:00 PM73 °FPartly sunny.6 mph83%30.16 "Hg15 mi
7:00 PM79 °FScattered clouds.7 mph74%30.15 "Hg15 mi
6:00 PM81 °FPartly sunny.9 mph74%30.14 "Hg15 mi
5:00 PM81 °FBroken clouds.6 mph74%30.16 "Hg15 mi
4:00 PM82 °FBroken clouds.8 mph70%30.16 "Hg15 mi
3:00 PM81 °FBroken clouds.10 mph74%30.17 "Hg15 mi
2:00 PM81 °FPartly sunny.8 mph79%30.18 "Hg12 mi
1:00 PM79 °FBroken clouds.9 mph79%30.19 "Hg8 mi
12:00 PM75 °FFog.7 mph89%30.20 "Hg5 mi
11:00 AM73 °FFog.7 mph94%30.19 "Hg4 mi
10:00 AM73 °FPartly sunny.6 mph94%30.17 "Hg8 mi
9:00 AM70 °FFog.3 mph100%30.17 "Hg2 mi
8:51 AM70 °FFog.5 mph100%30.17 "Hg1 mi
8:00 AM68 °FFog.2 mph94%30.17 "Hg2 mi
7:00 AM63 °FFog.No wind100%30.17 "Hg10 mi
6:00 AM63 °FFog.2 mph100%30.15 "Hg10 mi
5:00 AM64 °FPassing clouds.No wind100%30.14 "Hg10 mi
4:00 AM66 °FPassing clouds.2 mph94%30.12 "Hg12 mi
3:00 AM64 °FClear.No wind100%30.11 "Hg15 mi
2:00 AM64 °FClear.2 mph100%30.11 "Hg15 mi
1:00 AM66 °FClear.3 mph94%30.13 "Hg15 mi
12:00 AM66 °FPassing clouds.3 mph94%30.13 "Hg15 mi
11:00 PM
Sat, Aug 27
68 °FPartly cloudy.5 mph94%30.14 "Hg15 mi
10:00 PM70 °FOvercast.7 mph88%30.13 "Hg15 mi
Weather by CustomWeather, © 2016

See weather overviewHow to use our weather pages